Regional Weather Roundup
Issued by NWS Lake Charles, LA

Home | Current Version | Previous Version | Text Only | Print | Product List | Glossary On
Versions: 1 2 3 4 5 6 7 8 9 10 11 12 13 14 15 16 17 18 19 20 21 22 23 24 25 26 27 28 29 30 31 32 33 34 35 36 37 38 39 40 41 42 43 44 45 46 47 48 49 50
000
ASUS44 KLCH 241810
RWRLCH
REGIONAL WEATHER ROUNDUP
NATIONAL WEATHER SERVICE LAKE CHARLES LA
1200 PM CST FRI FEB 24 2017

Note: "fair" indicates few or no clouds below 12,000 feet with no
significant weather and/or obstructions to visibility.


ACROSS SOUTHEAST TEXAS

CITY           SKY/WX    TMP DP  RH WIND       PRES   REMARKS
BEAUMONT       MOSUNNY   78  60  53 SW9G21    29.79F
BEAUMONT CITY  FAIR      79  60  51 SW12G68   29.80F
ORANGE         PTCLDY    76  64  65 S13G20    29.82S
JASPER         MOSUNNY   78  62  58 S12       29.80S
$$

ACROSS CENTRAL LOUISIANA

CITY           SKY/WX    TMP DP  RH WIND       PRES   REMARKS
LEESVILLE      MOSUNNY   76  60  59 SW13      29.77F
FULLERTON      FAIR      78  59  51 VRB6      29.75F
ALEXANDRIA INT MOSUNNY   76  61  59 SW13G22   29.76F
ESLER FIELD    MOSUNNY   77  59  53 SW14G21   29.78F
DERIDDER       FAIR      77  58  52 S10G20    29.81S
OAKDALE        MOCLDY    74  60  60 SW16      29.79S
OPELOUSAS      FAIR      76  60  58 MISG      29.80F
$$

ACROSS SOUTHWEST AND SOUTH CENTRAL LOUISIANA

CITY           SKY/WX    TMP DP  RH WIND       PRES   REMARKS
SULPHUR        PTCLDY    77  61  58 S16       29.81F
LAKE CHARLES   MOSUNNY   75  61  61 S13G21    29.80S
CHENNAULT INT  PTSUNNY   75  61  60 S13G20    29.81S
CAMERON PHI    CLEAR     72  66  83 S10       29.80F
DEQUINCY       MOCLDY    75  59  57 SW13      29.80S
JENNINGS       FAIR      75  61  61 S14G20    29.81F
LAFAYETTE      PTSUNNY   77  64  64 SW9       29.83S
NEW IBERIA     PTSUNNY   78  61  55 S16       29.83F
ABBEVILLE      CLOUDY    75  64  69 SW10      29.83F
PATTERSON      CLOUDY    74  63  68 SW10      29.84S
SALT POINT       N/A     74  65  73 VRB5      29.83R
$$

SELECTED SITES ACROSS THE REGION

CITY           SKY/WX    TMP DP  RH WIND       PRES   REMARKS
HOUSTON BUSH   PTSUNNY   78  62  57 W10       29.79S
HOUSTON HOBBY  PTSUNNY   76  63  64 SW8       29.78F
GALVESTON      SUNNY     74  67  78 SE9       29.80F
COLLEGE STAT   SUNNY     73  55  53 NW16      29.82R
CONROE         PTSUNNY   77  61  57 W8        29.79S
HUNTSVILLE     MOSUNNY   77  61  57 W12       29.80R
LUFKIN         PTSUNNY   76  61  59 W13       29.77R
SHREVEPORT     MOSUNNY   78  60  53 W15       29.73F
MONROE         MOSUNNY   75  58  55 S13G21    29.75F
NATCHEZ MS     SUNNY     73  57  56 S15G24    29.79F
BATON ROUGE    PTSUNNY   77  61  57 SW12      29.82F
N.O. INTL ARPT PTSUNNY   74  61  63 SW15      29.83F
SLIDELL        CLOUDY    76  62  62 S8        29.83F
$$

MARINE REPORTS

STATION/POSITION TIME  SKY/WX   TEMP    WIND        PRES    VSBY
                                AIR SEA DIR/SP/G
                 (UTC)          (F)     (DEG/KT/KT) (MB)    (MI)
BUOY 30 S HIGH I 1750            68 68   10/  2/  4 1009.7R
WVE H/P(F/S)=  4/ 7

SEA RIM ST PARK  1800            72     170/  9/ 10 1009.8F
PORT ARTHUR      1748               67  210/ 13/ 19 1009.2F
SABINE PASS N    1748            73 69  200/ 13/ 17 1010.6F
TEXAS POINT      NOT AVBL
CALCASIEU PASS   1748            70 67  200/ 10/ 12   N/A
LK CHARLES BEACH 1748            75 69              1009.4F
MARSH ISLAND     1700            72                   N/A
FRESH WATER LOCK 1748            71 68  200/  8/ 11 1010.9F
AMERADA PASS     1748            73 57  170/  6/ 11 1010.1F
$$



USA.gov is the U.S. government's official web portal to all federal, state and local government web resources and services.